Regional Weather Roundup
Issued by NWS

Home | Current Version | Previous Version | Graphics & Text | Print | Product List | Glossary On
Versions: 1 2 3 4 5 6 7 8 9 10 11 12 13 14 15 16 17 18 19 20 21 22 23 24 25 26 27 28 29 30 31 32 33 34 35 36 37 38 39 40 41 42 43 44 45 46 47 48 49 50
000
ASUS43 KMPX 230510
RWRMN
WEATHER ROUNDUP FOR MINNESOTA
NATIONAL WEATHER SERVICE TWIN CITIES/CHANHASSEN MN
1100 PM CST MON JAN 22 2018


NOTE: "FAIR" INDICATES FEW OR NO CLOUDS BELOW 12,000 FEET WITH NO
SIGNIFICANT WEATHER AND/OR OBSTRUCTIONS TO VISIBILITY. N/A MEANS
CURRENT SKY AND/OR WEATHER CONDITIONS ARE NOT AVAILABLE.

MNZ060>063-068>070-230600-
   Twin Cities Metro

CITY           SKY/WX    TMP DP  RH WIND       PRES   REMARKS
TWIN CITIES    FLURRIES  27  23  85 N20G29    29.81R WCI  13
ST PAUL        LGT SNOW  26  22  84 N22G29    29.82R FOG     WCI  12
CRYSTAL        MIX PCPN  27  18  69 N16G22    29.81R WCI  15
BLAINE         CLOUDY    28  21  74 N18G28    29.82R WCI  16
LAKEVILLE        N/A     25  25 100 N14G20    29.80R WCI  13
EDEN PRAIRIE   CLOUDY    28  21  75 N15G23    29.79R WCI  16
SOUTH ST PAUL  LGT SNOW  27  24  89 N13G21    29.80R WCI  16
LAKE ELMO      CLOUDY    28  25  86 N15       29.81R WCI  17
$$
MNZ001>005-007-008-013>017-022>024-027-028-230600-
   Northwest Minnesota

CITY           SKY/WX    TMP DP  RH WIND       PRES   REMARKS
BEMIDJI        CLOUDY    20  17  86 N7        29.98S WCI  11
HALLOCK        MOCLDY    21  16  79 CALM      30.07S
ROSEAU         CLOUDY    19  16  86 NE5       30.06S WCI  13
WARROAD        CLOUDY    19  14  79 N5        30.06S WCI  13
THIEF RVR FALL CLOUDY    20  15  81 NE8       30.06R WCI  10
CROOKSTON      MOCLDY    21  18  86 NE8       30.07S WCI  12
FOSSTON        CLOUDY    18  16  93 N7        30.01S WCI   8
DETROIT LAKES  CLOUDY    25  19  80 NE9       29.98S WCI  15
MOORHEAD       CLOUDY    25  18  74 N13       30.04R WCI  13
PARK RAPIDS    CLOUDY    22  16  78 N14       29.95R WCI   9
MAHNOMEN       CLOUDY    22  18  83 N13       30.00R WCI  10
$$
MNZ006-009>011-018-025>026-230600-
   North Central Minnesota

CITY           SKY/WX    TMP DP  RH WIND       PRES   REMARKS
BAUDETTE       CLOUDY    18  13  80 N7        30.02S WCI   9
FLAG ISLAND    CLOUDY    18  12  79 N8        30.06S WCI   7
INTL FALLS     CLOUDY    14   8  77 NE9       30.01S WCI   2
WASKISH        CLOUDY    19  16  86 NE7       30.01R WCI  10
BIG FORK       FAIR      18  12  79 N5        29.96F WCI  11
LONGVILLE      CLOUDY    21  18  86 N7        29.95S WCI  13
GRAND RAPIDS   FAIR      17  14  88 N13       29.94F WCI   4
CRANE LAKE     FAIR       9   7  92 CALM      30.02S
ORR            FAIR      10   7  85 CALM      29.94F
COOK           CLOUDY    10   9  92 N8        29.95S WCI  -1
WALKER         CLOUDY    21  16  79 N9G17     29.96F WCI  11
$$
MNZ012-019>021-037-230600-
   Northeast Minnesota

CITY           SKY/WX    TMP DP  RH WIND       PRES   REMARKS
DULUTH         FAIR      16  11  80 N10       29.85S WCI   4
HIBBING        FAIR      14  10  84 N9        29.91F WCI   2
EVELETH        MOCLDY    18  12  77 N9G18     29.91S WCI   6
DULUTH HARBOR  CLOUDY    23  18  80 N20       29.90S WCI   8
TWO HARBORS    FAIR      18  12  79 N7        29.85S WCI   8
GRAND MARAIS     N/A     16   7  67 N20G35    29.82F WCI  -1
G MARAIS ARPRT FAIR       7   0  72 N13G23    29.78F WCI  -9
$$
MNZ029>031-032-039>041-046>048-054>057-064-230600-
   West Central Minnesota

CITY           SKY/WX    TMP DP  RH WIND       PRES   REMARKS
FERGUS FALLS   CLOUDY    23  18  80 N9        29.98S WCI  13
WHEATON        CLOUDY    25  21  86 N14G21    30.02R WCI  13
MORRIS         CLOUDY    25  19  80 N12       29.95S WCI  14
ALEXANDRIA     CLOUDY    23  17  78 N15G24    29.93S WCI  10
ELBOW LAKE     CLOUDY    23  19  84 NE14      29.97S WCI  11
WADENA         CLOUDY    21  18  86 N10       29.94S WCI  10
GLENWOOD       FAIR      23  19  86 N13       29.92S WCI  11
APPLETON       CLOUDY    27  19  74 N16       29.96R WCI  14
BENSON         CLOUDY    27  19  74 NE16G22   29.95S WCI  14
ORTONVILLE     CLOUDY    25  19  80 N16G23    29.97R WCI  12
MADISON        CLOUDY    28  23  80 N15G22    29.96R WCI  17
WILLMAR        CLOUDY    25  21  86 N17G23    29.92R WCI  11
$$
MNZ033>034-036-042>043-049>051-058-059-230600-
   Central Minnesota

CITY           SKY/WX    TMP DP  RH WIND       PRES   REMARKS
ST CLOUD       CLOUDY    25  19  78 N15G23    29.88R WCI  13
SAUK CENTRE      N/A     24  17  77 N14G20    29.91S WCI  11
PAYNESVILLE    CLOUDY    26  22  84 N9        29.89S WCI  17
AITKIN         FAIR      19  14  79 N9        29.90S WCI   9
PINE RIVER     CLOUDY    21  16  79 N8G20     29.97S WCI  12
BRAINERD       FAIR      23  15  71 N12       29.92S WCI  12
STAPLES        CLOUDY    21  16  79 N14G21    29.94S WCI   8
LONG PRAIRIE   CLOUDY    23  18  80 NW13G18   29.91S WCI  11
LITTLE FALLS   CLOUDY    27  14  59 N8G22     29.91S WCI  18
LITCHFIELD     FAIR      27  23  86 N18G24    29.86S WCI  13
BUFFALO        CLOUDY    27  21  79 N16       29.85S WCI  14
MAPLE LAKE     CLOUDY    28  23  82 MISG      29.86R
HUTCHINSON     FAIR      27  22  82 N22G28    29.85R WCI  13
$$
MNZ037-044-045-052-053-230600-
   East Central Minnesota

CITY           SKY/WX    TMP DP  RH WIND       PRES   REMARKS
PRINCETON      CLOUDY    27  19  74 N15G21    29.85S WCI  15
MORA           CLOUDY    25  18  74 N7        29.87S WCI  17
CAMBRIDGE        N/A     27  18  69 N12G17    29.85R WCI  16
RUSH CITY      CLOUDY    25  19  77 N12G18    29.85R WCI  14
MOOSE LAKE     CLOUDY    23  14  68 N13G22    29.86R WCI  11
HINCKLEY       CLOUDY    27  19  74 N14       29.85S WCI  15
CLOQUET        FAIR      18  10  73 N10G18    29.87R WCI   6
MCGREGOR       FAIR      23  18  80 N10       29.90S WCI  12
$$
MNZ071>073-080-081-089-090-097-098-230600-
   Southwest Minnesota

CITY           SKY/WX    TMP DP  RH WIND       PRES   REMARKS
MONTEVIDEO     CLOUDY    27  21  80 N18G24    29.94R WCI  13
GRANITE FALLS  CLOUDY    28  23  79 NW20G25   29.93R WCI  15
CANBY          CLOUDY    27  23  84 NW15G23   29.97R WCI  15
MARSHALL       CLOUDY    27  22  81 N20G30    29.92R WCI  13
REDWOOD FALLS  CLOUDY    27  21  78 N12G24    29.88R WCI  17
OLIVIA         PTCLDY    27  21  80 N13       29.88R WCI  16
PIPESTONE      CLOUDY    25  21  86 N16G23    29.90R WCI  12
WINDOM         CLOUDY    27  12  54 NW25      29.84R WCI  11
WORTHINGTON    MIX PCPN  25  23  92 N29G36    29.85R FOG     WCI   8
JACKSON        CLOUDY    28  25  86 N22G32    29.83R WCI  15
TRACY          CLOUDY    28  24  86 N22G32    29.89R WCI  13
SLAYTON        CLOUDY    25  23  90 N21G31    29.88R WCI  11
$$
MNZ065>067-074>077-082>085-091>093-230600-
   South Central Minnesota

CITY           SKY/WX    TMP DP  RH WIND       PRES   REMARKS
MANKATO        LGT SNOW  27  25  93 N22       29.81R FOG     WCI  12
NEW ULM        CLOUDY    27  21  80 N12G20    29.85R WCI  16
ST JAMES       CLOUDY    27  25  93 NW22      29.84R WCI  12
FAIRMONT       FLURRIES  27  26  96 N24G31    29.80R WCI  12
GLENCOE        CLOUDY    28  23  80 N13G21    29.83R WCI  18
FARIBAULT      LGT SNOW  27  25  93 N13       29.78R WCI  16
OWATONNA         N/A     27  25  93 N20       29.75R WCI  13
WASECA         CLOUDY    27  23  86 N20G26    29.78R WCI  13
ALBERT LEA     LGT SNOW  27  23  86 N21G29    29.72R WCI  13
$$
MNZ078>079-086>088-094>096-230600-
   Southeast Minnesota

CITY           SKY/WX    TMP DP  RH WIND       PRES   REMARKS
ROCHESTER      LGT SNOW  25  24  96 N24G31    29.68R FOG     WCI   9
RED WING       LGT SNOW  27  21  80 N12G18    29.76R WCI  16
STANTON        LGT SNOW  28  26  91 N16       29.77R WCI  16
DODGE CENTER   LGT SNOW  25  21  86 N17       29.70R WCI  11
WINONA         FLURRIES  32  28  86 N9G16     29.67R WCI  24
AUSTIN         LGT SNOW  25  23  93 VRB17G32  29.69R WCI  11
PRESTON        CLOUDY    27  24  90 N18G25    29.62R WCI  14
$$
ABBREVIATIONS USED IN REMARKS
   TC - TEMPERATURES IN CELSIUS
  WCI - WIND CHILL INDEX
   HX - HEAT INDEX
  VSB - VISIBILITY
$$




USA.gov is the U.S. government's official web portal to all federal, state and local government web resources and services.